1509307200.42,31336,9.81,71484.0,-11.47,-12.39,-12.53,0,*6B
1509307201.66,31337,9.81,71484.8,-11.47,-12.39,-12.39,0,*66
1509307202.87,31338,9.81,71484.5,-11.45,-12.39,-12.39,0,*6B
1509307204.14,31339,9.81,71480.5,-11.47,-12.47,-12.53,0,*6D
1509307205.4,31340,9.81,71480.0,-11.47,-12.47,-12.53,0,*63
1509307206.67,31341,9.81,71476.8,-11.47,-12.47,-12.61,0,*63
1509307207.91,31342,9.81,71476.3,-11.47,-12.47,-12.47,0,*64
1509307209.15,31343,9.81,71480.5,-11.47,-12.39,-12.39,0,*65
1509307210.36,31344,9.81,71482.5,-11.45,-12.43,-12.47,0,*64
1509307211.57,31345,9.81,71484.8,-11.45,-12.43,-12.47,0,*65
1509307212.81,31346,9.81,71482.3,-11.47,-12.39,-12.47,0,*69
1509307214.1,31347,9.81,71476.8,-11.47,-12.53,-12.53,0,*61
1509307215.39,31348,9.81,71480.3,-11.47,-12.61,-12.53,0,*6F
1509307216.66,31349,9.81,71482.3,-11.45,-12.75,-12.83,0,*64
1509307217.89,31350,9.81,71452.5,-11.47,-12.89,-13.07,0,*60
1509307219.13,31351,9.81,71424.5,-11.45,-12.97,-13.01,0,*6A
1509307220.4,31352,9.81,71436.5,-11.47,-13.19,-13.29,0,*66
1509307221.66,31353,9.81,71436.8,-11.47,-13.37,-13.51,0,*64
1509307222.9,31354,9.81,71420.0,-11.47,-13.47,-13.51,0,*64
1509307224.1,31355,9.81,71406.5,-11.49,-13.47,-13.47,0,*6C
1509307225.36,31356,9.81,71400.8,-11.51,-13.33,-13.23,0,*67
1509307226.58,31357,9.81,71394.0,-11.49,-13.19,-13.19,0,*6E
1509307227.85,31358,9.81,71372.0,-11.49,-13.29,-13.33,0,*6A
1509307229.13,31359,9.81,71354.5,-11.51,-13.37,-13.37,0,*69
1509307230.39,31360,9.81,71394.5,-11.51,-13.43,-13.37,0,*60
1509307231.66,31361,9.81,71382.8,-11.51,-13.23,-13.33,0,*63
1509307232.9,31362,9.81,71370.0,-11.51,-13.19,-13.19,0,*61
1509307234.14,31363,9.81,71384.5,-11.51,-12.97,-13.07,0,*68
1509307235.43,31364,9.81,71390.3,-11.55,-12.71,-12.79,0,*6B
1509307236.73,31365,9.81,71394.8,-11.55,-12.71,-12.79,0,*6A
1509307238.01,31366,9.81,71390.8,-11.55,-12.83,-12.83,0,*61
1509307239.3,31367,9.81,71396.3,-11.51,-12.79,-12.83,0,*61
1509307240.59,31368,9.81,71410.0,-11.51,-12.79,-12.83,0,*6E
1509307241.87,31369,9.81,71412.5,-11.51,-12.79,-12.83,0,*6F
1509307243.12,31370,9.81,71418.0,-11.55,-12.93,-12.97,0,*62
1509307244.36,31371,9.75,71412.8,-11.55,-12.93,-12.93,0,*67
1509307245.6,31372,9.81,71414.3,-11.51,-12.93,-12.93,0,*60
1509307246.85,31373,9.81,71410.8,-11.55,-12.97,-12.97,0,*65
1509307248.09,31374,9.81,71416.0,-11.55,-12.93,-12.93,0,*62
1509307249.33,31375,9.81,71402.3,-11.55,-12.93,-12.93,0,*63
1509307250.57,31376,9.81,71408.3,-11.55,-12.97,-13.07,0,*68
1509307251.81,31377,9.81,71414.3,-11.57,-12.97,-13.01,0,*6D
1509307253.07,31378,9.81,71412.8,-11.55,-12.83,-13.07,0,*63
1509307254.28,31379,9.81,71418.5,-11.57,-12.93,-12.97,0,*69
1509307255.53,31380,9.81,71418.0,-11.55,-12.93,-12.93,0,*69
1509307256.79,31381,9.81,71412.0,-11.55,-12.93,-12.83,0,*69
1509307258.04,31382,9.81,71414.0,-11.55,-12.93,-12.93,0,*6B
1509307259.25,31383,9.81,71414.0,-11.57,-12.97,-12.97,0,*68
1509307260.52,31384,9.81,71418.5,-11.55,-12.83,-12.93,0,*6C
1509307261.76,31385,9.81,71426.5,-11.55,-12.93,-12.97,0,*68
1509307263.0,31386,9.81,71452.8,-11.55,-12.93,-12.97,0,*6B
1509307264.24,31387,9.75,71436.5,-11.57,-12.97,-13.01,0,*62
1509307265.47,31388,9.81,71448.5,-11.57,-12.97,-13.01,0,*6D
1509307266.71,31389,9.81,71442.3,-11.57,-12.97,-13.01,0,*6C
1509307267.95,31390,9.81,71440.8,-11.57,-12.75,-12.89,0,*69
1509307269.21,31391,9.81,71450.0,-11.57,-12.83,-12.83,0,*6B
1509307270.51,31392,9.81,71448.8,-11.55,-12.71,-12.71,0,*6A
1509307271.77,31393,9.81,71454.0,-11.57,-12.61,-12.75,0,*6C
1509307273.07,31394,9.81,71462.5,-11.55,-12.71,-12.71,0,*6C
1509307274.31,31395,9.81,71462.3,-11.57,-12.89,-12.83,0,*65
1509307275.54,31396,9.81,71466.0,-11.57,-12.83,-12.89,0,*66
1509307276.83,31397,9.81,71460.3,-11.55,-12.71,-12.83,0,*62
1509307278.13,31398,9.81,71458.0,-11.55,-12.79,-12.79,0,*60
1509307279.42,31399,9.81,71438.5,-11.55,-12.57,-12.61,0,*64
1509307280.7,31400,9.81,71426.8,-11.55,-12.57,-12.65,0,*67
1509307281.99,31401,9.81,71442.0,-11.55,-12.53,-12.57,0,*63
1509307283.29,31402,9.81,71450.5,-11.55,-12.53,-12.53,0,*64
1509307284.58,31403,9.81,71426.3,-11.55,-12.57,-12.57,0,*65
1509307285.84,31404,9.81,71434.0,-11.57,-12.61,-12.61,0,*60
1509307287.13,31405,9.81,71428.0,-11.55,-12.53,-12.53,0,*63
1509307288.43,31406,9.81,71422.3,-11.55,-12.57,-12.53,0,*64
1509307289.69,31407,9.81,71436.3,-11.57,-12.61,-12.61,0,*63
1509307290.92,31408,9.81,71448.3,-11.57,-12.43,-12.53,0,*6D
1509307292.16,31409,9.81,71458.8,-11.57,-12.47,-12.57,0,*6C
1509307293.43,31410,9.81,71460.8,-11.57,-12.71,-12.75,0,*61
1509307294.7,31411,9.81,71460.8,-11.55,-12.79,-12.93,0,*62
1509307295.96,31412,9.81,71462.0,-11.57,-12.79,-12.83,0,*62
1509307297.25,31413,9.81,71464.3,-11.55,-12.57,-12.53,0,*60
1509307298.49,31414,9.81,71464.8,-11.57,-12.61,-12.47,0,*65
1509307299.78,31415,9.81,71474.3,-11.55,-12.57,-12.53,0,*66
1509307301.08,31416,9.75,71458.8,-11.55,-12.53,-12.53,0,*61
1509307302.34,31417,9.81,71472.3,-11.57,-12.61,-12.71,0,*63
1509307303.61,31418,9.81,71478.8,-11.55,-12.43,-12.53,0,*6E
1509307304.89,31419,9.81,71468.3,-11.55,-12.57,-12.65,0,*6F
1509307306.19,31420,9.81,71478.5,-11.55,-12.65,-12.79,0,*69
1509307307.42,31421,9.81,71488.8,-11.57,-12.83,-13.11,0,*6D
1509307308.63,31422,9.81,71474.8,-11.57,-13.11,-13.23,0,*65
1509307309.88,31423,9.81,71464.3,-11.55,-13.19,-13.19,0,*67
1509307311.13,31424,9.81,71446.3,-11.55,-13.11,-13.19,0,*68
1509307312.37,31425,9.81,71446.0,-11.57,-12.71,-12.97,0,*6B
1509307313.62,31426,9.81,71464.8,-11.57,-12.83,-13.01,0,*6B
1509307314.86,31427,9.81,71472.5,-11.57,-13.01,-13.23,0,*61
1509307316.11,31428,9.81,71476.3,-11.55,-13.19,-13.19,0,*6C
1509307317.37,31429,9.81,71422.8,-11.57,-13.29,-13.37,0,*60
1509307318.61,31430,9.81,71436.3,-11.57,-13.15,-13.29,0,*68
1509307319.82,31431,9.81,71440.5,-11.57,-12.97,-13.11,0,*69
1509307321.06,31432,9.81,71470.3,-11.57,-13.01,-13.23,0,*65
1509307322.29,31433,9.81,71462.3,-11.57,-13.37,-13.47,0,*63
1509307323.56,31434,9.81,71450.3,-11.57,-13.83,-13.87,0,*67
1509307324.8,31435,9.81,71440.0,-11.57,-13.83,-13.73,0,*6D
1509307326.03,31436,9.81,71442.8,-11.59,-13.43,-13.43,0,*6F
1509307327.32,31437,9.81,71440.5,-11.59,-13.29,-13.29,0,*6E
1509307328.61,31438,9.81,71432.8,-11.59,-13.37,-13.37,0,*61
1509307329.88,31439,9.81,71444.8,-11.61,-13.29,-13.33,0,*60
1509307331.12,31440,9.81,71444.0,-11.61,-13.19,-13.29,0,*66
1509307332.41,31441,9.81,71424.5,-11.59,-13.29,-13.29,0,*6F
1509307333.65,31442,9.81,71392.0,-11.61,-13.55,-13.61,0,*60
1509307334.86,31443,9.81,71370.8,-11.61,-13.43,-13.51,0,*65
1509307336.07,31444,9.81,71352.5,-11.61,-13.51,-13.47,0,*66
1509307337.27,31445,9.81,71352.5,-11.61,-13.47,-13.47,0,*60
1509307338.52,31446,9.81,71360.5,-11.61,-13.19,-13.33,0,*6B
1509307339.76,31447,9.81,71356.5,-11.61,-13.19,-13.33,0,*6A
1509307340.99,31448,9.81,71374.5,-11.61,-13.29,-13.43,0,*61
1509307342.2,31449,9.81,71394.0,-11.61,-13.15,-13.15,0,*6C
1509307343.44,31450,9.81,71408.8,-11.59,-12.97,-12.97,0,*6F
1509307344.68,31451,9.81,71424.3,-11.61,-12.89,-13.01,0,*64
1509307345.92,31452,9.81,71432.3,-11.61,-12.79,-12.89,0,*69
1509307347.18,31453,9.81,71452.5,-11.61,-12.79,-12.79,0,*67
1509307348.42,31454,9.81,71460.0,-11.61,-12.79,-12.89,0,*6F
1509307349.64,31455,9.81,71462.8,-11.61,-12.89,-12.89,0,*61
1509307350.93,31456,9.81,71458.8,-11.59,-12.75,-12.75,0,*69
1509307352.23,31457,9.81,71468.5,-11.59,-12.83,-12.75,0,*61
1509307353.49,31458,9.81,71472.0,-11.61,-12.79,-12.79,0,*6C
1509307354.78,31459,9.81,71472.3,-11.59,-12.61,-12.75,0,*63
1509307356.05,31460,9.81,71472.3,-11.61,-12.75,-12.79,0,*6B
1509307357.32,31461,9.81,71480.8,-11.61,-12.79,-12.79,0,*66
1509307358.56,31462,9.81,71492.8,-11.61,-12.79,-12.89,0,*6A
1509307359.79,31463,9.81,71494.0,-11.61,-12.83,-12.89,0,*6E
1509307361.09,31464,9.81,71502.5,-11.59,-12.75,-12.71,0,*6C
1509307362.36,31465,9.81,71508.5,-11.61,-12.65,-12.61,0,*66
1509307363.62,31466,9.81,71520.8,-11.61,-12.65,-12.61,0,*65
1509307364.88,31467,9.81,71518.8,-11.61,-12.61,-12.79,0,*69
1509307366.12,31468,9.81,71514.0,-11.61,-12.93,-13.01,0,*65
1509307367.35,31469,9.81,71500.3,-11.61,-13.01,-13.15,0,*6B
1509307368.57,31470,9.81,71510.0,-11.61,-13.15,-13.19,0,*6A
1509307369.8,31471,9.81,71490.5,-11.59,-13.11,-13.15,0,*68
1509307371.07,31472,9.81,71478.0,-11.59,-13.01,-13.15,0,*6A
1509307372.28,31473,9.81,71486.5,-11.61,-13.07,-13.15,0,*66
1509307373.48,31474,9.81,71490.0,-11.61,-13.15,-13.15,0,*62
1509307374.69,31475,9.81,71464.5,-11.61,-13.07,-13.07,0,*63
1509307375.9,31476,9.81,71462.8,-11.61,-13.07,-13.15,0,*63
1509307377.14,31477,9.81,71470.0,-11.59,-12.89,-12.89,0,*6A
1509307378.36,31478,9.81,71482.0,-11.61,-12.93,-12.93,0,*6E
1509307379.59,31479,9.81,71488.3,-11.61,-12.93,-13.01,0,*65
1509307380.81,31480,9.81,71490.3,-11.61,-12.89,-12.93,0,*62
1509307382.02,31481,9.81,71496.5,-11.61,-12.89,-12.93,0,*63
1509307383.29,31482,9.81,71496.8,-11.61,-12.75,-12.79,0,*67
1509307384.56,31483,9.81,71506.5,-11.61,-12.65,-12.75,0,*6B
1509307385.83,31484,9.81,71506.5,-11.61,-12.75,-12.75,0,*6D
1509307387.08,31485,9.81,71506.0,-11.61,-12.61,-12.65,0,*68
1509307388.35,31486,9.81,71510.8,-11.61,-12.61,-12.61,0,*6F
1509307389.62,31487,9.81,71520.3,-11.61,-12.53,-12.75,0,*6A
1509307390.86,31488,9.81,71522.0,-11.61,-12.75,-12.89,0,*62
1509307392.1,31489,9.81,71524.0,-11.61,-12.75,-12.89,0,*63
1509307393.37,31490,9.81,71512.0,-11.61,-12.65,-12.75,0,*69
1509307394.63,31491,9.81,71514.8,-11.61,-12.53,-12.65,0,*6C
1509307395.89,31492,9.81,71510.0,-11.61,-12.53,-12.65,0,*6F
1509307397.16,31493,9.81,71516.3,-11.61,-12.75,-12.75,0,*6B
1509307398.4,31494,9.81,71498.5,-11.59,-12.89,-12.89,0,*67
1509307399.67,31495,9.81,71500.5,-11.61,-12.79,-12.79,0,*6D
1509307400.91,31496,9.81,71506.3,-11.61,-12.75,-12.89,0,*6D
1509307402.16,31497,9.81,71506.0,-11.61,-12.75,-12.89,0,*6C
1509307403.4,31498,9.81,71484.8,-11.59,-12.97,-12.97,0,*6B
1509307404.63,31499,9.81,71502.0,-11.59,-13.11,-13.15,0,*6E
1509307405.84,31500,9.81,71510.8,-11.61,-13.15,-13.23,0,*65
1509307407.05,31501,9.81,71444.8,-11.61,-13.15,-13.15,0,*61
1509307408.29,31502,9.81,71412.3,-11.61,-13.19,-13.29,0,*61
1509307409.51,31503,9.81,71350.8,-11.61,-13.23,-13.23,0,*63
1509307410.77,31504,9.81,71236.5,-11.61,-13.29,-13.33,0,*6F
1509307412.03,31505,9.81,71308.5,-11.59,-13.37,-13.47,0,*69
1509307413.3,31506,9.81,71296.3,-11.61,-13.29,-13.33,0,*6D
1509307414.56,31507,9.81,71314.5,-11.61,-13.29,-13.29,0,*67
1509307415.78,31508,9.81,71338.5,-11.65,-13.23,-13.19,0,*65
1509307417.02,31509,9.81,71318.8,-11.67,-12.97,-13.07,0,*67
1509307418.24,31510,9.81,71330.3,-11.65,-12.97,-12.97,0,*65
1509307419.48,31511,9.81,71316.3,-11.61,-12.79,-12.93,0,*64
1509307420.72,31512,9.81,71320.0,-11.61,-12.93,-13.01,0,*69
1509307421.94,31513,9.81,71340.3,-11.61,-12.93,-12.93,0,*62
1509307423.18,31514,9.81,71392.5,-11.61,-12.79,-12.93,0,*61
1509307424.41,31515,9.81,71392.0,-11.61,-12.79,-12.89,0,*6B
1509307425.69,31516,9.81,71414.8,-11.65,-12.65,-12.71,0,*66
1509307426.96,31517,9.81,71446.5,-11.65,-12.65,-12.71,0,*67
1509307428.22,31518,9.81,71422.3,-11.61,-12.75,-12.65,0,*68
1509307429.46,31519,9.81,71408.0,-11.61,-13.01,-12.93,0,*62
1509307430.68,31520,9.81,71420.3,-11.61,-12.89,-12.89,0,*62
1509307431.94,31521,9.81,71424.3,-11.65,-12.71,-12.65,0,*62
1509307433.21,31522,9.81,71430.0,-11.65,-12.71,-12.71,0,*64
1509307434.46,31523,9.81,71430.8,-11.65,-12.79,-12.93,0,*61
1509307435.7,31524,9.81,71428.0,-11.65,-12.79,-12.93,0,*66
1509307436.94,31525,9.81,71444.3,-11.65,-12.83,-12.93,0,*62
1509307438.21,31526,9.81,71448.8,-11.65,-12.79,-12.79,0,*60
1509307439.48,31527,9.81,71452.0,-11.59,-12.47,-12.57,0,*6F
1509307440.74,31528,9.81,71460.5,-11.61,-12.53,-12.53,0,*6A
1509307442.0,31529,9.81,71470.3,-11.61,-12.61,-12.65,0,*6F
1509307443.26,31530,9.81,71472.0,-11.61,-12.61,-12.65,0,*67
1509307444.49,31531,9.81,71480.3,-11.61,-12.89,-13.01,0,*63
1509307445.76,31532,9.81,71488.3,-11.61,-12.75,-12.79,0,*6D
1509307447.03,31533,9.81,71486.3,-11.61,-12.75,-12.79,0,*6C
1509307448.3,31534,9.81,71486.5,-11.61,-12.75,-12.75,0,*67
1509307449.57,31535,9.81,71490.8,-11.61,-12.65,-12.75,0,*67
1509307450.83,31536,9.81,71492.0,-11.61,-12.65,-12.75,0,*64
1509307452.09,31537,9.81,71494.3,-11.61,-12.61,-12.61,0,*64
1509307453.38,31538,9.81,71498.5,-11.59,-12.75,-12.83,0,*69
1509307454.68,31539,9.81,71504.3,-11.59,-12.75,-12.71,0,*65
1509307455.94,31540,9.81,71508.3,-11.61,-12.65,-12.65,0,*64
1509307457.21,31541,9.81,71506.5,-11.61,-12.61,-12.53,0,*64
1509307458.47,31542,9.81,71512.0,-11.59,-12.47,-12.57,0,*6C
1509307459.76,31543,9.81,71512.3,-11.59,-12.61,-12.57,0,*69
1509307461.02,31544,9.81,71516.8,-11.59,-12.47,-12.61,0,*6F
1509307462.28,31545,9.81,71526.3,-11.61,-12.61,-12.61,0,*61
1509307463.57,31546,9.81,71528.3,-11.59,-12.57,-12.57,0,*69
1509307464.83,31547,9.81,71528.0,-11.61,-12.53,-12.61,0,*62
1509307466.13,31548,9.81,71526.8,-11.59,-12.57,-12.57,0,*67
1509307467.42,31549,9.81,71530.0,-11.59,-12.61,-12.71,0,*67
1509307468.68,31550,9.81,71534.0,-11.61,-12.53,-12.65,0,*60
1509307469.97,31551,9.81,71534.0,-11.59,-12.61,-12.57,0,*6A
1509307471.23,31552,9.81,71532.8,-11.61,-12.75,-12.65,0,*66
1509307472.53,31553,9.81,71536.0,-11.59,-12.71,-12.71,0,*6D
1509307473.8,31554,9.81,71532.5,-11.61,-12.75,-12.75,0,*61
1509307475.08,31555,9.81,71532.5,-11.59,-12.57,-12.65,0,*6A
1509307476.37,31556,9.81,71530.5,-11.59,-12.61,-12.61,0,*68
1509307477.67,31557,9.81,71526.0,-11.59,-12.71,-12.71,0,*69
1509307478.93,31558,9.81,71524.5,-11.59,-13.01,-13.15,0,*63
1509307480.16,31559,9.81,71520.5,-11.61,-13.29,-13.43,0,*60
1509307481.45,31560,9.81,71492.8,-11.59,-13.29,-13.29,0,*6D
1509307482.69,31561,9.81,71462.0,-11.59,-13.11,-13.15,0,*68
1509307483.93,31562,9.81,71432.8,-11.59,-13.23,-13.23,0,*6F
1509307485.15,31563,9.81,71426.5,-11.61,-13.19,-13.19,0,*65
1509307486.39,31564,9.81,71430.3,-11.59,-13.15,-13.15,0,*69
1509307487.65,31565,9.81,71420.8,-11.61,-13.29,-13.29,0,*63
1509307488.88,31566,9.81,71420.5,-11.61,-13.29,-13.43,0,*6C
1509307490.1,31567,9.81,71436.0,-11.61,-12.93,-13.07,0,*6D
1509307491.31,31568,9.81,71448.8,-11.61,-12.89,-12.89,0,*6E
1509307492.55,31569,9.81,71452.0,-11.61,-12.79,-12.89,0,*60
1509307493.77,31570,9.81,71470.8,-11.61,-12.89,-12.89,0,*67
1509307495.0,31571,9.75,71470.5,-11.61,-12.89,-13.01,0,*67
1509307496.24,31572,9.81,71478.3,-11.61,-12.79,-12.89,0,*6A
1509307497.51,31573,9.81,71480.0,-11.61,-12.65,-12.79,0,*69
1509307498.77,31574,9.81,71480.3,-11.61,-12.75,-12.65,0,*62
1509307500.04,31575,9.81,71480.5,-11.61,-12.75,-12.79,0,*6E
1509307501.33,31576,9.81,71478.3,-11.59,-12.61,-12.71,0,*6B
1509307502.6,31577,9.81,71472.0,-11.61,-12.57,-12.71,0,*64
1509307503.86,31578,9.81,71472.5,-11.61,-12.53,-12.65,0,*6A
1509307505.13,31579,9.81,71474.8,-11.61,-12.53,-12.53,0,*6E
1509307506.4,31580,9.81,71476.3,-11.61,-12.53,-12.53,0,*68
1509307507.67,31581,9.81,71484.5,-11.61,-12.53,-12.53,0,*69
1509307508.91,31582,9.81,71490.0,-11.59,-12.47,-12.47,0,*61
1509307510.18,31583,9.81,71506.5,-11.61,-12.53,-12.53,0,*6B
1509307511.44,31584,9.81,71512.8,-11.61,-12.53,-12.65,0,*69
1509307512.71,31585,9.81,71518.3,-11.61,-12.65,-12.75,0,*6C
1509307513.95,31586,9.81,71526.8,-11.61,-12.65,-12.89,0,*6C
1509307515.22,31587,9.81,71534.3,-11.61,-12.71,-12.75,0,*6B
1509307516.49,31588,9.81,71536.5,-11.61,-12.75,-12.79,0,*6C
1509307517.78,31589,9.81,71530.3,-11.59,-12.61,-12.71,0,*6B
1509307519.08,31590,9.81,71514.0,-11.59,-12.57,-12.71,0,*66
1509307520.34,31591,9.81,71516.3,-11.61,-12.79,-12.79,0,*68
1509307521.6,31592,9.81,71516.5,-11.59,-12.89,-13.01,0,*61
1509307522.82,31593,9.81,71514.0,-11.61,-13.15,-13.19,0,*66
1509307524.03,31594,9.81,71508.0,-11.57,-13.15,-13.23,0,*6D
1509307525.29,31595,9.81,71492.5,-11.59,-13.01,-13.15,0,*62
1509307526.53,31596,9.81,71462.5,-11.59,-13.15,-13.23,0,*61
1509307527.79,31597,9.81,71448.8,-11.59,-13.23,-13.29,0,*6F
1509307529.02,31598,9.81,71448.8,-11.61,-13.15,-13.29,0,*6E
1509307530.26,31599,9.81,71436.0,-11.59,-13.11,-13.15,0,*6F
1509307531.5,31600,9.81,71436.3,-11.61,-12.93,-13.01,0,*69
1509307532.71,31601,9.81,71450.8,-11.61,-12.89,-12.93,0,*69
1509307533.95,31602,9.81,71450.5,-11.61,-12.79,-12.89,0,*6E
1509307535.17,31603,9.81,71444.5,-11.61,-12.89,-12.89,0,*60
1509307536.38,31604,9.81,71448.0,-11.61,-12.93,-12.93,0,*67
1509307537.62,31605,9.81,71444.3,-11.59,-12.89,-12.89,0,*6D
1509307538.84,31606,9.81,71466.5,-11.61,-12.93,-12.89,0,*6E
1509307540.1,31607,9.81,71470.5,-11.59,-12.83,-12.89,0,*65
1509307541.35,31608,9.81,71476.8,-11.61,-12.89,-12.79,0,*64
1509307542.61,31609,9.81,71480.5,-11.61,-12.79,-12.79,0,*6A
1509307543.88,31610,9.81,71488.0,-11.61,-12.79,-12.79,0,*62
1509307545.15,31611,9.81,71494.8,-11.61,-12.79,-12.79,0,*63
1509307546.4,31612,9.75,71496.0,-11.61,-12.65,-12.65,0,*60
1509307547.67,31613,9.81,71506.5,-11.61,-12.75,-12.75,0,*61
1509307548.94,31614,9.81,71500.5,-11.61,-12.75,-12.65,0,*67
1509307550.2,31615,9.81,71500.8,-11.61,-12.61,-12.61,0,*67
1509307551.45,31616,9.81,71500.5,-11.61,-12.65,-12.65,0,*64
1509307552.71,31617,9.81,71500.3,-11.61,-12.61,-12.61,0,*65
1509307553.98,31618,9.81,71500.0,-11.59,-12.47,-12.53,0,*64
1509307555.25,31619,9.75,71492.8,-11.61,-12.53,-12.53,0,*6B
1509307556.52,31620,9.81,71498.3,-11.61,-12.53,-12.53,0,*61
1509307557.76,31621,9.81,71498.0,-11.61,-12.47,-12.53,0,*65
1509307558.97,31622,9.81,71498.0,-11.61,-12.43,-12.43,0,*63
1509307560.19,31623,9.81,71500.5,-11.61,-12.47,-12.47,0,*62
1509307561.4,31624,9.81,71500.5,-11.61,-12.43,-12.47,0,*61
1509307562.61,31625,9.81,71502.5,-11.61,-12.43,-12.43,0,*64
1509307563.85,31626,9.81,71500.0,-11.59,-12.43,-12.43,0,*6C
1509307565.09,31627,9.81,71502.5,-11.59,-12.43,-12.43,0,*6D
1509307566.33,31628,9.81,71496.5,-11.59,-12.43,-12.43,0,*62
1509307567.6,31629,9.81,71498.3,-11.61,-12.53,-12.53,0,*68
1509307568.86,31630,9.81,71498.8,-11.59,-12.43,-12.57,0,*6E
1509307570.12,31631,9.81,71488.8,-11.61,-12.53,-12.65,0,*64
1509307571.39,31632,9.81,71488.0,-11.61,-12.53,-12.75,0,*66
1509307572.66,31633,9.81,71480.5,-11.59,-12.47,-12.61,0,*6C
1509307573.95,31634,9.81,71484.3,-11.59,-12.57,-12.71,0,*6B
1509307575.21,31635,9.81,71486.0,-11.61,-12.61,-12.65,0,*61
1509307576.5,31636,9.81,71482.3,-11.59,-12.57,-12.61,0,*68
1509307577.76,31637,9.81,71484.3,-11.59,-12.47,-12.57,0,*6D
1509307579.0,31638,9.81,71486.8,-11.59,-12.47,-12.47,0,*63
1509307580.27,31639,9.81,71494.5,-11.61,-12.53,-12.61,0,*68
1509307581.53,31640,9.81,71490.8,-11.59,-12.47,-12.61,0,*68
1509307582.8,31641,9.81,71498.0,-11.59,-12.47,-12.57,0,*6C
1509307584.06,31642,9.81,71506.0,-11.59,-12.57,-12.47,0,*6F
1509307585.31,31643,9.81,71510.0,-11.59,-12.47,-12.47,0,*6F
1509307586.6,31644,9.81,71510.5,-11.59,-12.71,-12.75,0,*6C
1509307587.86,31645,9.81,71512.8,-11.61,-12.61,-12.65,0,*66
1509307589.12,31646,9.81,71514.8,-11.59,-12.47,-12.57,0,*6B
1509307590.36,31647,9.81,71514.0,-11.59,-12.47,-12.47,0,*6B
1509307591.6,31648,9.81,71500.8,-11.59,-12.43,-12.47,0,*60
1509307592.86,31649,9.81,71502.5,-11.59,-12.47,-12.57,0,*64
1509307594.11,31650,9.81,71514.3,-11.59,-12.47,-12.47,0,*6D
1509307595.35,31651,9.81,71514.5,-11.59,-12.47,-12.47,0,*6C
1509307596.61,31652,9.81,71514.5,-11.61,-12.53,-12.61,0,*65
1509307597.85,31653,9.81,71522.5,-11.59,-12.43,-12.47,0,*6A
1509307599.06,31654,9.81,71520.3,-11.57,-12.43,-12.43,0,*67
1509307600.27,31655,9.81,71520.0,-11.57,-12.39,-12.43,0,*6B
1509307601.48,31656,9.81,71520.3,-11.57,-12.43,-12.39,0,*68
1509307602.7,31657,9.81,71526.5,-11.57,-12.39,-12.43,0,*69
1509307603.91,31658,9.75,71526.3,-11.57,-12.39,-12.43,0,*66
1509307605.12,31659,9.81,71522.3,-11.57,-12.43,-12.43,0,*6A
1509307606.35,31660,9.81,71520.5,-11.57,-12.43,-12.57,0,*65
1509307607.59,31661,9.81,71514.8,-11.55,-12.43,-12.43,0,*63
1509307608.86,31662,9.81,71510.5,-11.57,-12.57,-12.57,0,*62
1509307610.09,31663,9.81,71496.3,-11.55,-12.43,-12.43,0,*61
1509307611.31,31664,9.81,71494.0,-11.57,-12.47,-12.47,0,*64
1509307612.57,31665,9.81,71490.8,-11.55,-12.43,-12.53,0,*66
1509307613.83,31666,9.81,71478.3,-11.57,-12.57,-12.57,0,*66
1509307615.1,31667,9.81,71462.3,-11.57,-12.71,-12.83,0,*6A
1509307616.34,31668,9.81,71436.0,-11.57,-12.83,-12.89,0,*62
1509307617.59,31669,9.81,71408.5,-11.57,-13.01,-13.01,0,*69
1509307618.83,31670,9.81,71398.3,-11.57,-13.01,-13.11,0,*60
1509307620.07,31671,9.81,71412.5,-11.57,-12.89,-12.83,0,*6A
1509307621.36,31672,9.81,71424.0,-11.55,-12.57,-12.57,0,*61
1509307622.62,31673,9.81,71430.3,-11.57,-12.57,-12.57,0,*62
1509307623.88,31674,9.81,71424.0,-11.57,-12.57,-12.57,0,*65
1509307625.18,31675,9.81,71426.0,-11.55,-12.53,-12.53,0,*66
1509307626.42,31676,9.81,71430.0,-11.57,-12.47,-12.57,0,*66
1509307627.68,31677,9.81,71438.8,-11.57,-12.57,-12.57,0,*66
1509307628.95,31678,9.81,71446.0,-11.57,-12.61,-12.71,0,*68
1509307630.21,31679,9.81,71434.8,-11.57,-12.71,-12.83,0,*65
1509307631.47,31680,9.81,71448.3,-11.57,-12.61,-12.75,0,*6B
1509307632.69,31681,9.81,71456.0,-11.57,-12.89,-12.97,0,*60
1509307633.95,31682,9.81,71462.8,-11.57,-13.01,-13.01,0,*6C
1509307635.18,31683,9.81,71460.0,-11.57,-12.89,-13.01,0,*6C
1509307636.42,31684,9.81,71452.3,-11.57,-12.97,-13.01,0,*64
1509307637.63,31685,9.81,71444.0,-11.57,-13.11,-13.11,0,*6B
1509307638.84,31686,9.81,71430.5,-11.57,-13.23,-13.15,0,*6D
1509307640.04,31687,9.81,71440.8,-11.57,-13.15,-13.15,0,*69
1509307641.26,31688,9.81,71442.0,-11.57,-12.97,-13.11,0,*69
1509307642.47,31689,9.81,71442.5,-11.57,-13.11,-13.11,0,*67
1509307643.71,31690,9.81,71432.5,-11.61,-13.01,-13.07,0,*6C
1509307644.95,31691,9.81,71436.3,-11.59,-12.97,-12.97,0,*60
1509307646.21,31692,9.81,71430.0,-11.59,-13.01,-13.11,0,*62
1509307647.42,31693,9.81,71418.3,-11.61,-13.15,-13.15,0,*69
1509307648.68,31694,9.75,71410.0,-11.59,-12.97,-13.01,0,*6B
1509307649.95,31695,9.81,71418.3,-11.61,-12.75,-12.75,0,*6F
1509307651.21,31696,9.81,71424.0,-11.61,-12.65,-12.65,0,*6C
1509307652.48,31697,9.81,71426.8,-11.61,-12.65,-12.75,0,*6C
1509307653.77,31698,9.81,71424.0,-11.59,-12.75,-12.83,0,*60
1509307655.01,31699,9.81,71420.5,-11.61,-12.79,-12.89,0,*6C
1509307656.3,31700,9.81,71424.8,-11.59,-12.71,-12.83,0,*64
1509307657.6,31701,9.75,71434.3,-11.59,-12.75,-12.75,0,*68
1509307658.84,31702,9.81,71420.3,-11.61,-12.75,-12.89,0,*63
1509307660.08,31703,9.81,71440.3,-11.59,-12.89,-12.93,0,*61
1509307661.38,31704,9.81,71438.3,-11.59,-12.75,-12.83,0,*64
1509307662.66,31705,9.81,71426.0,-11.59,-12.83,-12.83,0,*6C
1509307663.88,31706,9.81,71420.3,-11.61,-12.89,-12.89,0,*64
1509307665.12,31707,9.81,71422.3,-11.61,-12.93,-12.79,0,*61
1509307666.38,31708,9.81,71442.0,-11.59,-12.47,-12.61,0,*65
1509307667.64,31709,9.81,71434.0,-11.61,-12.61,-12.61,0,*6B
1509307668.91,31710,9.81,71414.5,-11.59,-12.47,-12.61,0,*6C
1509307670.17,31711,9.81,71414.0,-11.59,-12.47,-12.57,0,*68
1509307671.44,31712,9.81,71428.5,-11.59,-12.47,-12.57,0,*6B
1509307672.73,31713,9.81,71430.5,-11.59,-12.57,-12.75,0,*6B
1509307674.0,31714,9.81,71426.8,-11.61,-12.75,-12.75,0,*67
1509307675.26,31715,9.81,71396.8,-11.59,-12.83,-12.97,0,*68
1509307676.56,31716,9.81,71428.5,-11.59,-12.75,-12.75,0,*6E
1509307677.8,31717,9.81,71434.5,-11.61,-12.79,-12.89,0,*6B
1509307679.09,31718,9.81,71434.5,-11.59,-12.83,-12.83,0,*60
1509307680.33,31719,9.81,71410.0,-11.59,-12.97,-12.97,0,*61
1509307681.54,31720,9.81,71394.0,-11.61,-12.93,-13.07,0,*6C
1509307682.77,31721,9.81,71416.5,-11.61,-12.89,-13.01,0,*60
1509307684.01,31722,9.81,71408.3,-11.61,-12.89,-13.01,0,*63
1509307685.3,31723,9.81,71428.0,-11.59,-12.75,-12.75,0,*68
1509307686.59,31724,9.81,71454.0,-11.59,-12.61,-12.61,0,*6F
1509307687.88,31725,9.81,71426.3,-11.59,-12.61,-12.71,0,*6F
1509307689.18,31726,9.81,71414.3,-11.59,-12.71,-12.83,0,*60
1509307690.47,31727,9.81,71442.8,-11.59,-12.71,-12.75,0,*68
1509307691.73,31728,9.81,71456.0,-11.61,-12.57,-12.57,0,*68
1509307693.0,31729,9.81,71456.0,-11.61,-12.65,-12.79,0,*64
1509307694.26,31730,9.81,71442.0,-11.59,-12.83,-12.97,0,*6F
1509307695.47,31731,9.81,71434.0,-11.61,-12.93,-13.07,0,*6C
1509307696.71,31732,9.81,71456.5,-11.61,-12.93,-13.01,0,*69
1509307697.95,31733,9.81,71448.8,-11.59,-12.89,-12.97,0,*66
1509307699.24,31734,9.81,71462.0,-11.59,-12.75,-12.83,0,*67
1509307700.51,31735,9.81,71478.5,-11.59,-12.75,-12.89,0,*6C